SHIJIAN-25 (SJ-25)

Last updated on Sun Jun 21 2026 00:03:09 GMT+0000 (Coordinated Universal Time)

1 62485U 25002A 26171.44912980 -.00000357 00000+0 00000+0 0 9992 2 62485 5.1219 61.1498 0052012 173.4030 322.9628 1.00261664 5397
UTC large
Height (km)
Speed (km/s)
/
Latitude / Longitude
Inclination (degrees)
Orbital Period (minutes)
Azimuth
Elevation
Range (km)
Doppler Factor

Next 0 passes for location: London (51.5072 / 0.1276)

No passes found over London.
SHIJIAN-25 (SJ-25)